Fort Lauderdale, FL

11:17 AM EST on December 13, 2019 (GMT -0500)
Fort Lauderdale Executive

Weather History for KFXE - October, 2019

Change the Weather History Date:

Wednesday, October 9, 2019

  Actual Average Record
Temperature  
Mean Temperature 82 °F -  
Max Temperature 89 °F 88 °F 94 °F (1981)
Min Temperature 75 °F 71 °F 64 °F (1954)
Cooling Degree Days 16    
Growing Degree Days 32 (Base 50)    
Moisture  
Dew Point 75 °F    
Average Humidity 86    
Maximum Humidity 100    
Minimum Humidity 61    
Precipitation  
Precipitation 0.17 in - - ()
Sea Level Pressure  
Sea Level Pressure 29.94 in    
Wind  
Wind Speed 3 mph ()    
Max Wind Speed 12 mph    
Max Gust Speed 24 mph    
Visibility 9.8 miles    
Events Rain , Thunderstorm    
Averages and records for this station are not official NWS values.
T = Trace of Precipitation, MM = Missing Value Source: Averaged Metar Reports

Daily Weather History Graph

Daily Weather History Graph

Search for Another Location

Airport or City:

Astronomy

Oct. 09, 2019 Rise Set
Actual Time 7:16 AM EDT 6:58 PM EDT
Civil Twilight 6:53 AM EDT 7:22 PM EDT
Nautical Twilight 6:26 AM EDT 7:48 PM EDT
Astronomical Twilight 5:59 AM EDT 8:15 PM EDT
Moon 5:00 PM EDT (10/9) 3:34 AM EDT (10/9)
Length of Visible Light 12h 28m
Length of Day
11h 42m
Waxing Gibbous, 85% of the Moon is Illuminated
Oct 9
Waxing Gibbous
Oct 13
Full
Oct 21
Last Quarter
Oct 27
New
Nov 4
First Quarter

Hourly Weather History & Observations

Time (EDT) Temp. Heat Index Dew Point Humidity Pressure Visibility Wind Dir Wind Speed Gust Speed Precip Events Conditions
12:53 AM 77.0 °F - 75.0 °F 94% 29.92 in 10.0 mi Calm Calm - N/A   Clear
1:53 AM 77.0 °F - 75.9 °F 96% 29.90 in 10.0 mi Calm Calm - N/A   Clear
2:53 AM 75.0 °F - 73.9 °F 96% 29.89 in 10.0 mi SSW 3.5 mph - N/A   Clear
3:53 AM 75.9 °F - 75.0 °F 97% 29.90 in 10.0 mi South 3.5 mph - N/A   Clear
4:53 AM 75.9 °F - 75.9 °F 100% 29.91 in 10.0 mi Calm Calm - N/A   Clear
5:53 AM 75.9 °F - 75.0 °F 97% 29.92 in 10.0 mi Calm Calm - N/A   Mostly Cloudy
6:53 AM 75.9 °F - 75.9 °F 100% 29.94 in 10.0 mi WSW 3.5 mph - N/A   Scattered Clouds
7:53 AM 77.0 °F - 77.0 °F 100% 29.95 in 10.0 mi Calm Calm - N/A   Scattered Clouds
8:53 AM 78.1 °F - 75.9 °F 93% 29.96 in 10.0 mi SSW 3.5 mph - N/A   Scattered Clouds
9:23 AM 79.0 °F - 77.0 °F 94% 29.96 in 10.0 mi WSW 5.8 mph - N/A   Scattered Clouds
9:53 AM 80.1 °F 85.8 °F 77.0 °F 90% 29.98 in 10.0 mi WSW 5.8 mph - N/A   Mostly Cloudy
10:00 AM 80.1 °F 85.4 °F 75.9 °F 87% 29.97 in 10.0 mi WSW 4.6 mph - N/A   Partly Cloudy
10:22 AM 81.0 °F 87.9 °F 77.0 °F 88% 29.97 in 10.0 mi Variable 3.5 mph - N/A   Mostly Cloudy
10:31 AM 81.0 °F 87.3 °F 75.9 °F 85% 29.97 in 10.0 mi SW 3.5 mph - N/A   Mostly Cloudy
10:53 AM 82.9 °F 90.8 °F 75.9 °F 79% 29.98 in 10.0 mi Variable 3.5 mph - N/A   Mostly Cloudy
11:00 AM 82.0 °F 88.6 °F 75.0 °F 79% 29.97 in 10.0 mi West 4.6 mph - N/A   Mostly Cloudy
11:53 AM 84.9 °F 93.3 °F 75.0 °F 72% 29.98 in 10.0 mi WSW 6.9 mph - N/A   Mostly Cloudy
12:00 PM 84.9 °F 92.1 °F 73.9 °F 69% 29.96 in 10.0 mi SW 6.9 mph - N/A   Scattered Clouds
12:53 PM 87.1 °F 95.4 °F 73.9 °F 65% 29.96 in 10.0 mi SSW 8.1 mph - N/A   Scattered Clouds
1:53 PM 88.0 °F 95.6 °F 73.0 °F 61% 29.93 in 10.0 mi WSW 10.4 mph - N/A   Scattered Clouds
2:20 PM 82.0 °F 88.6 °F 75.0 °F 79% 29.92 in 1.5 mi WSW 11.5 mph 24.2 mph 0.14 in Rain Heavy Rain
2:29 PM 81.0 °F 87.9 °F 77.0 °F 88% 29.91 in 10.0 mi SSW 5.8 mph - 0.16 in Rain Light Rain
2:53 PM 82.9 °F 90.8 °F 75.9 °F 79% 29.90 in 10.0 mi WSW 5.8 mph - 0.16 in   Scattered Clouds
3:02 PM 84.0 °F 92.6 °F 75.9 °F 76% 29.89 in 10.0 mi Calm Calm - N/A Thunderstorm Clear
3:17 PM 84.9 °F 94.1 °F 75.9 °F 74% 29.90 in 10.0 mi South 3.5 mph - N/A   Scattered Clouds
3:53 PM 84.9 °F 91.4 °F 73.0 °F 67% 29.90 in 10.0 mi West 5.8 mph - N/A   Scattered Clouds
4:53 PM 82.0 °F 87.4 °F 73.0 °F 74% 29.90 in 10.0 mi WSW 11.5 mph - N/A   Mostly Cloudy
5:28 PM 81.0 °F 86.7 °F 75.0 °F 82% 29.90 in 10.0 mi WSW 8.1 mph - 0.00 in Rain , Thunderstorm Light Rain
5:53 PM 80.1 °F 85.4 °F 75.9 °F 87% 29.90 in 10.0 mi WSW 4.6 mph - 0.01 in Rain , Thunderstorm Light Rain
6:53 PM 79.0 °F - 75.0 °F 88% 29.93 in 10.0 mi NNW 5.8 mph - 0.00 in Thunderstorm Mostly Cloudy
8:53 PM 77.0 °F - 73.0 °F 88% 29.95 in 10.0 mi North 3.5 mph - N/A Thunderstorm Mostly Cloudy
9:53 PM 77.0 °F - 73.9 °F 90% 29.97 in 10.0 mi NNW 5.8 mph - N/A   Mostly Cloudy
10:14 PM 75.9 °F - 75.0 °F 97% 29.95 in 10.0 mi Calm Calm - N/A   Mostly Cloudy
10:44 PM 75.9 °F - 73.9 °F 94% 29.95 in 10.0 mi NE 4.6 mph - N/A   Mostly Cloudy
10:53 PM 75.9 °F - 73.9 °F 94% 29.96 in 10.0 mi North 3.5 mph - 0.00 in Rain Light Rain
11:53 PM 75.9 °F - 73.9 °F 94% 29.98 in 10.0 mi Calm Calm - 0.00 in   Partly Cloudy